This is the latest recevied weather packets stored in our database for station/object KS4XQ. If no packets are shown the sender has not sent any weather packets the latest 10 day(s).
| Time | Temp. | Humidity | Pressure | Rain* | Wind** | Luminosity | Snow |
|---|---|---|---|---|---|---|---|
| 1777392602 | 13.33° C | 96% | 1022.1 hPa | 0 mm | - | - | - |
| 1777390801 | 13.33° C | 98% | 1022.9 hPa | 0 mm | - | - | - |
| 1777388405 | 12.78° C | 97% | 1023.8 hPa | 0.25 mm | - | - | - |
| 1777384804 | 11.67° C | 97% | 1023.1 hPa | 2.54 mm | - | - | - |
| 1777383301 | 11.67° C | 96% | 1023.3 hPa | 3.3 mm | - | - | - |
| 1777382703 | 11.67° C | 96% | 1023.8 hPa | 3.3 mm | - | - | - |
| 1777381501 | 11.67° C | 96% | 1024.4 hPa | 7.37 mm | - | - | - |
| 1777380901 | 11.67° C | 96% | 1024.4 hPa | 6.6 mm | - | - | - |
| 1777377603 | 11.67° C | 96% | 1023.3 hPa | 0.51 mm | - | - | - |
| 1777374900 | 10.56° C | 96% | 1023.4 hPa | 0 mm | - | - | - |
| 1777374602 | 10.56° C | 96% | 1023.6 hPa | 0 mm | - | - | - |
| 1777368901 | 9.44° C | 95% | 1020.4 hPa | 0 mm | - | - | - |
| 1777365900 | 9.44° C | 94% | 1020.5 hPa | 0 mm | - | - | - |
| 1777364701 | 9.44° C | 93% | 1020.4 hPa | 0 mm | - | - | - |
| 1777364101 | 9.44° C | 92% | 1020.2 hPa | 0 mm | - | - | - |
| 1777362901 | 9.44° C | 92% | 1020.1 hPa | 0 mm | - | - | - |
| 1777360201 | 9.44° C | 91% | 1020.4 hPa | 0 mm | - | - | - |
| 1777359301 | 9.44° C | 90% | 1020.7 hPa | 0 mm | - | - | - |
| 1777355400 | 10° C | 89% | 1021.4 hPa | 0 mm | - | - | - |
| 1777354799 | 10° C | 89% | 1021.4 hPa | 0 mm | - | - | - |
| 1777354199 | 10° C | 89% | 1021.7 hPa | 0 mm | - | - | - |
| 1777350600 | 10.56° C | 87% | 1021.8 hPa | 0 mm | - | - | - |
| 1777346103 | 11.67° C | 84% | 1021.7 hPa | 0 mm | - | - | - |
| 1777344902 | 12.22° C | 82% | 1021.9 hPa | 0 mm | - | - | - |
| 1777342802 | 12.78° C | 82% | 1021.8 hPa | 0 mm | - | - | - |
* Rain latest hour (hover to see other rain measurements)
** Current wind speed in m/s (hover to see current wind gust speed)